Погода в Великомихайловке

Украина / Днепропетровская область     48°08′59″N   35°37′23″E
темп.,
°C
ветер,
м/с
пор.,
м/с
влажн.,
%
обл.,
%
осадки,
мм/ч
давл.,
гПа
погр.,
м
27 октября, ср
ср2700:00+2ю35595 0.0 103179
03:00+1ююв34575 0.0 103053
06:000ю33650 0.0 103033
09:00+3ю34520 0.0 1029162
12:00+9ююз34350 0.0 1028670
15:00+11юз33320 0.0 1026931
18:00+7юз22460 0.0 102510
21:00+5зюз22540 0.0 102618
28 октября, чт
чт2800:00+4з22583 0.0 102511
03:00+4з22725 0.0 102514
06:00+3зюз228492 0.0 102517
09:00+6з3474100 0.0 1025120
12:00+10з345780 0.0 1025399
15:00+13з454432 0.0 1023941
18:00+11зюз3554100 0.0 102387
21:00+11зсз3761100 0.0 1023228
29 октября, пт
пт2900:00+10сз357665 0.0 1023146
03:00+8ссз358893 0.0 102494
06:00+7с36935 0.0 1025116
09:00+9ссв36800 0.0 1027225
12:00+13св345320 0.0 10271262
15:00+15св344417 0.0 10271494
18:00+11св33572 0.0 102824
21:00+8вюв34620 0.0 102954
30 октября, сб
сб3000:00+7в33750 0.0 103039
03:00+6в47860 0.0 1031110
06:00+5в46890 0.0 1032100
09:00+7в46760 0.0 1032191
12:00+13вюв56475 0.0 10321175
15:00+14в56395 0.0 10311378
18:00+10в45552 0.0 103170
21:00+8в46640 0.0 103196
31 октября, вс
вс3100:00+7в36750 0.0 103195
03:00+6в47790 0.0 1031105
05:00+5всв48820 0.0 1030136
08:00+7в511740 0.0 1030336
11:00+13в68500 0.0 1028838
14:00+15вюв68410 0.0 10261127
17:00+11в49580 0.0 1025154
20:00+9в410670 0.0 1025186